Weather Roundup
Issued by NWS Chicago, IL

Home | Current Version | Previous Version | Text Only | Print | Product List | Glossary Off
Versions: 1 2 3 4 5 6 7 8 9 10 11 12 13 14 15 16 17 18 19 20 21 22 23 24 25 26 27 28 29 30 31 32 33 34 35 36 37 38 39 40 41 42 43 44 45 46 47 48 49 50

000
NZUS59 KLOT 181806
HRRLOT

CHICAGO AREA WEATHER ROUNDUP
NATIONAL WEATHER SERVICE CHICAGO/ROMEOVILLE IL
1200 PM CST THU DEC 18 2014

NOTE: "FAIR" INDICATES FEW OR NO CLOUDS BELOW 12,000 FEET WITH NO
SIGNIFICANT WEATHER AND/OR OBSTRUCTIONS TO VISIBILITY.

* THESE STATIONS ARE NOT UNDER NWS QUALITY CONTROL. THEY ALSO MAY NOT
  REPORT WEATHER SUCH AS PRECIPITATION OR FOG.

ILZ005-006-012>014-019>023-181900-
NORTHEAST ILLINOIS

CITY           SKY/WX    TMP DP  RH WIND       PRES   REMARKS
OHARE          CLOUDY    26  17  68 W6        30.25F WCI  19
6HR MIN TEMP:  19; 6HR MAX TEMP:  26;

MIDWAY         PTSUNNY   27  18  69 W6        30.26F WCI  20
6HR MIN TEMP:  25; 6HR MAX TEMP:  27;

AURORA         CLOUDY    25  16  68 W5        30.27F WCI  19
6HR MIN TEMP:  23; 6HR MAX TEMP:  25;

LANSING*       PTSUNNY   25  17  72 CALM      30.27F
JOLIET*        CLOUDY    25  17  73 CALM      30.27F
WAUKEGAN       CLOUDY    26  19  74 W5        30.24F WCI  20
6HR MIN TEMP:  16; 6HR MAX TEMP:  26;

DUPAGE AIRPORT PTSUNNY   26  16  65 W5        30.25F WCI  20
6HR MIN TEMP:  20; 6HR MAX TEMP:  26;

WHEELING       CLOUDY    25  16  68 W6        30.27F WCI  18
6HR MIN TEMP:  19; 6HR MAX TEMP:  25;

KANKAKEE*      CLOUDY    26  20  76 CALM      30.28F
MORRIS*        CLOUDY    25  19  79 W5        30.27F WCI  19
LEWIS AIRPORT* CLOUDY    25  18  76 W3        30.27F
NORTHERLY IS     N/A     27  17  66 S3          N/A
$$

WIZ051-052-058>065-066-070>072-181900-
SOUTHEAST WISCONSIN

CITY           SKY/WX    TMP DP  RH WIND       PRES   REMARKS
MILWAUKEE      CLOUDY    27  21  78 W8        30.25F WCI  19
6HR MIN TEMP:  19; 6HR MAX TEMP:  28;

KENOSHA*       CLOUDY    27  21  78 W7        30.24F WCI  19
RACINE*        CLOUDY    28  19  69 NW6       30.26F WCI  22
BURLINGTON     CLOUDY    27  19  71 W7        30.24F WCI  20
WAUKESHA       CLOUDY    23  21  93 W6        30.26F FOG     WCI  16
WEST BEND      CLOUDY    28  23  80 N5        30.24F WCI  23
$$

INZ001>003-010>013-019-020-181900-
NORTHWEST INDIANA

CITY           SKY/WX    TMP DP  RH WIND       PRES   REMARKS
GARY*          PTSUNNY   27  14  59 VRB5      30.28F WCI  21
MICHIGAN CITY* NOT AVBL
RENSSELAER*    NOT AVBL
VALPARAISO     CLOUDY    26  17  68 S8        30.25F WCI  18
$$

LMZ740>746-181900-
SOUTHERN LAKE MICHIGAN

STATION/POSITION TIME  SKY/WX   TEMP WIND        PRES    VSBY
                                AIR  DIR/SP/G
                 (UTC)          (F)  (DEG/KT/KT) (MB)    (MI)
HARRISON CRIB    1800            26  240/  7/  9   N/A
BURNHAM HARBOR   1800            26  200/  7/  8   N/A
CALUMET HARBOR   1800            26  200/  3/  5 1023.6F
BURNS HARBOR     NOT AVBL
MICHIGAN CITY    NOT AVBL
$$

ABBREVIATIONS USED IN REMARKS
   TC - TEMPERATURE IN CELSIUS
  WCI - WIND CHILL INDEX
   HX - HEAT INDEX
  VSB - VISIBILITY
$$



USA.gov is the U.S. government's official web portal to all federal, state and local government web resources and services.